sat.trackr.live / text

‹ back to catalog

STARLINK-5502

NORAD 55644 · 2023-021S

PAYLOAD ACTIVE UNKNOWN

§ Identity

Operator
Country
US
Launch date
2023-02-17
Launch site
AFWTR
Launch vehicle
Mass (kg)
RCS (m²)

Purposes: comms

External: N2YO · Heavens-Above · Gunter

§ Orbital elements

Epoch: 2026-05-24T22:54:42.757920Z

Period
96.11 min
Inclination
69.9995°
Eccentricity
0.0002620
Mean motion
14.98334016 rev/d
Perigee alt
570.2 km
Apogee alt
573.9 km
Semi-major
6,950.2 km
B*
-7.3235e-5
RAAN
352.2276°
Arg perigee
271.4852°
Mean anomaly
88.6006°
Rev number
18,021

§ Raw data

STARLINK-55021 55644U 23021S   26144.95466155 -.00000967  00000+0 -73235-4 0  99972 55644  69.9995 352.2276 0002620 271.4852  88.6006 14.98334016180218

JSON: /api/v1/satellites/55644 · /tle

For live sub-satellite position, see the globe view (requires WebGL).

§ Visibility from observer

Set your observer location to see the next 7 days of passes ≥ 10°. The values pass through the URL so the page stays shareable.

No JS? Fill the form by hand. The geolocation button needs JavaScript.